User: anonymous   Login
Location: Goll?ig?dem
(16.6773°N, 80.7332°E)
Time: 19:50:00
(UTC+00:00)
Language:

SWIFT - Orbit

View from above orbital plane
View from above orbital plane
View from above satellite
View from above satellite

Ground track
Ground track

The orbit data is extracted from the following two-line orbital elements,

1 28485U 04047A   21172.59649160  .00000867  00000-0  28375-4 0  9995
2 28485  20.5577 319.9820 0011181  48.1167 312.0219 15.05020415909173
Epoch (UTC): 21 June 2021 14:18:56
Eccentricity: 0.0011181
inclination: 20.5577°
perigee height: 544 km
apogee height: 559 km
right ascension of ascending node: 319.9820°
argument of perigee: 48.1167°
revolutions per day: 15.05020415
mean anomaly at epoch: 312.0219°
orbit number at epoch: 90917

The dashed part of the orbit path shows where the satellite is in the earth's shadow,  

DLR